GW3585 Weather Reports


time (UTC)temp
F
wind
direction
speed
knots
gust
knots
rain 1hr
in
rain 24hr
in
rain mn
in
humidity
%
barometer
mb
20260502130548 52 0 0.0 0.0 0.00 0.00 0.00 30 1018.9
20260502123550 54 328 0.0 1.7 0.00 0.00 0.00 27 1018.5
20260502123059 53 330 0.9 1.7 0.00 0.00 0.00 26 1018.5
20260502122548 53 326 0.0 1.7 0.00 0.00 0.00 27 1018.4
20260502122048 53 349 0.0 1.7 0.00 0.00 0.00 27 1018.3
20260502121548 54 324 0.0 1.7 0.00 0.00 0.00 26 1018.3
20260502121047 54 297 0.0 0.9 0.00 0.00 0.00 26 1018.2
20260502120548 54 316 0.0 0.9 0.00 0.00 0.00 26 1018.1
20260502115548 54 305 0.0 0.9 0.00 0.00 0.00 26 1018.2
20260502115048 53 304 0.0 0.9 0.00 0.00 0.00 26 1018.1
20260502114555 53 166 0.0 0.0 0.00 0.00 0.00 27 1018.1
20260502114048 52 165 0.0 0.0 0.00 0.00 0.00 28 1018.1
20260502113548 52 0 0.0 0.0 0.00 0.00 0.00 29 1018.1
20260502113053 51 0 0.0 0.0 0.00 0.00 0.00 30 1018.1
20260502112547 52 0 0.0 0.0 0.00 0.00 0.00 30 1018.2
20260502112047 52 0 0.0 0.0 0.00 0.00 0.00 29 1018.2
20260502111550 52 0 0.0 0.0 0.00 0.00 0.00 28 1018.1
20260502111049 53 0 0.0 0.0 0.00 0.00 0.00 28 1018.1
20260502110548 53 0 0.0 0.0 0.00 0.00 0.00 28 1018.1
20260502110054 53 0 0.0 0.0 0.00 0.00 0.00 28 1018.0
20260502105548 53 0 0.0 0.0 0.00 0.00 0.00 29 1018.0
20260502105049 53 0 0.0 0.9 0.00 0.00 0.00 27 1018.0
20260502104551 54 0 0.0 0.9 0.00 0.00 0.00 27 1018.1
20260502104048 55 0 0.0 0.9 0.00 0.00 0.00 27 1018.1
20260502103548 55 0 0.0 0.9 0.00 0.00 0.00 24 1018.0
20260502103058 55 0 0.0 0.9 0.00 0.00 0.00 24 1017.9
20260502102548 55 337 0.0 0.9 0.00 0.00 0.00 24 1018.0
20260502102049 55 0 0.0 0.9 0.00 0.00 0.00 24 1018.0
20260502101559 56 0 0.0 0.9 0.00 0.00 0.00 24 1018.0
20260502101047 56 0 0.0 0.9 0.00 0.00 0.00 24 1018.0
20260502100548 56 330 0.0 0.9 0.00 0.00 0.00 24 1017.9
20260502100110 56 0 0.0 0.9 0.00 0.00 0.00 24 1017.9
20260502091047 57 0 0.0 0.9 0.00 0.00 0.00 23 1017.7
20260502090551 57 10 0.0 0.9 0.00 0.00 0.00 23 1017.6
20260502071048 62 66 0.0 1.7 0.00 0.00 0.00 18 1017.4
20260502070548 62 27 0.0 1.7 0.00 0.00 0.00 19 1017.4
20260502070053 63 0 0.9 1.7 0.00 0.00 0.00 18 1017.3
20260502065548 63 0 0.0 2.6 0.00 0.00 0.00 18 1017.3
20260502065049 63 83 0.0 2.6 0.00 0.00 0.00 18 1017.3
20260502064555 64 25 0.9 2.6 0.00 0.00 0.00 18 1017.2
20260502064048 64 39 0.0 1.7 0.00 0.00 0.00 17 1017.2
20260502063548 65 359 0.0 2.6 0.00 0.00 0.00 17 1017.1
20260502063106 66 82 0.0 2.6 0.00 0.00 0.00 17 1017.0
20260502062550 66 126 0.0 1.7 0.00 0.00 0.00 16 1017.0
20260502062047 67 153 0.0 2.6 0.00 0.00 0.00 15 1017.0
20260502061610 68 91 0.9 2.6 0.00 0.00 0.00 14 1016.9
20260502061047 68 15 0.0 3.5 0.00 0.00 0.00 14 1016.8
20260502060548 68 91 0.0 7.0 0.00 0.00 0.00 14 1016.8
20260502060058 69 353 0.9 7.0 0.00 0.00 0.00 14 1016.8
20260502055548 68 300 0.9 4.3 0.00 0.00 0.00 14 1016.7
20260502055047 67 331 0.9 3.5 0.00 0.00 0.00 14 1016.8
20260502054600 67 257 0.0 0.9 0.00 0.00 0.00 14 1016.7
20260502054048 68 286 0.0 3.5 0.00 0.00 0.00 14 1016.6
20260502053548 69 343 0.0 3.5 0.00 0.00 0.00 14 1016.6
20260502053102 69 248 0.9 7.0 0.00 0.00 0.00 13 1016.6
20260502052549 70 99 0.9 7.0 0.00 0.00 0.00 13 1016.6
20260502052048 70 352 3.5 8.7 0.00 0.00 0.00 13 1016.6
20260502051555 70 328 4.3 8.7 0.00 0.00 0.00 13 1016.4
20260502051048 70 333 3.5 7.0 0.00 0.00 0.00 13 1016.4
20260502050547 70 350 3.5 9.6 0.00 0.00 0.00 12 1016.3
20260502050053 70 3 3.5 9.6 0.00 0.00 0.00 12 1016.2
20260502045551 70 14 3.5 7.8 0.00 0.00 0.00 12 1016.2
20260502045049 70 1 4.3 7.8 0.00 0.00 0.00 12 1016.1
20260502044552 70 347 2.6 7.0 0.00 0.00 0.00 13 1016.1
20260502044047 70 41 2.6 7.0 0.00 0.00 0.00 12 1016.0
20260502043547 70 333 1.7 6.1 0.00 0.00 0.00 12 1016.0
20260502043100 70 334 2.6 7.8 0.00 0.00 0.00 12 1015.9
20260502042548 70 339 3.5 8.7 0.00 0.00 0.00 12 1015.8
20260502042048 70 335 4.3 8.7 0.00 0.00 0.00 12 1015.8
20260502041558 71 319 4.3 9.6 0.00 0.00 0.00 12 1015.7
20260502041049 71 37 5.2 9.6 0.00 0.00 0.00 12 1015.7
20260502040548 71 352 4.3 9.6 0.00 0.00 0.00 12 1015.7
20260502040055 71 325 3.5 10.4 0.00 0.00 0.00 12 1015.6
20260502035548 71 338 3.5 13.0 0.00 0.00 0.00 12 1015.5
20260502035048 71 335 4.3 13.0 0.00 0.00 0.00 12 1015.4
20260502034553 71 342 2.6 7.0 0.00 0.00 0.00 12 1015.3
20260502034048 71 356 2.6 7.8 0.00 0.00 0.00 12 1015.3
20260502033548 71 245 3.5 7.8 0.00 0.00 0.00 12 1015.2
20260502033052 71 349 3.5 7.8 0.00 0.00 0.00 12 1015.2
20260502032548 71 340 2.6 8.7 0.00 0.00 0.00 12 1015.1
20260502032047 71 5 2.6 10.4 0.00 0.00 0.00 12 1015.0
20260502031553 71 328 5.2 10.4 0.00 0.00 0.00 12 1014.9
20260502031047 71 1 4.3 14.8 0.00 0.00 0.00 12 1014.8
20260502030548 71 348 3.5 14.8 0.00 0.00 0.00 12 1014.8
20260502025548 72 336 4.3 9.6 0.00 0.00 0.00 12 1014.6
20260502025048 72 346 3.5 8.7 0.00 0.00 0.00 12 1014.6
20260502024604 72 349 3.5 8.7 0.00 0.00 0.00 12 1014.6
20260502024050 72 1 4.3 8.7 0.00 0.00 0.00 12 1014.6
20260502023551 73 320 3.5 8.7 0.00 0.00 0.00 12 1014.4
20260502023052 73 330 4.3 8.7 0.00 0.00 0.00 12 1014.4
20260502022548 73 304 3.5 7.8 0.00 0.00 0.00 12 1014.3
20260502022047 73 350 3.5 7.8 0.00 0.00 0.00 11 1014.3
20260502021555 73 330 3.5 9.6 0.00 0.00 0.00 11 1014.3
20260502021048 74 331 3.5 9.6 0.00 0.00 0.00 11 1014.3
20260502020548 74 347 4.3 9.6 0.00 0.00 0.00 11 1014.2
20260502020048 75 107 3.5 7.8 0.00 0.00 0.00 11 1014.2
20260502015548 75 298 3.5 7.8 0.00 0.00 0.00 11 1014.2
20260502015048 75 293 3.5 7.8 0.00 0.00 0.00 11 1014.1
20260502014550 76 347 4.3 7.8 0.00 0.00 0.00 10 1014.1
20260502014048 76 335 4.3 8.7 0.00 0.00 0.00 10 1014.0
20260502013548 76 313 4.3 8.7 0.00 0.00 0.00 10 1014.0
20260502013052 76 332 3.5 8.7 0.00 0.00 0.00 10 1013.9
20260502012552 76 354 3.5 8.7 0.00 0.00 0.00 10 1014.1
20260502012048 76 328 4.3 8.7 0.00 0.00 0.00 11 1014.1
20260502011550 77 333 3.5 8.7 0.00 0.00 0.00 10 1014.0
20260502011047 77 20 4.3 8.7 0.00 0.00 0.00 11 1014.1
20260502010547 77 311 2.6 8.7 0.00 0.00 0.00 10 1014.0
20260502010101 78 321 4.3 8.7 0.00 0.00 0.00 10 1014.1
20260502005548 78 32 2.6 7.0 0.00 0.00 0.00 11 1014.0
20260502005048 78 44 3.5 9.6 0.00 0.00 0.00 11 1014.0
20260502004548 78 355 3.5 9.6 0.00 0.00 0.00 10 1014.0
20260502004048 78 11 2.6 7.8 0.00 0.00 0.00 10 1014.0
20260502003547 78 358 2.6 7.8 0.00 0.00 0.00 10 1013.9
20260502003047 78 27 3.5 7.0 0.00 0.00 0.00 10 1013.9
20260502002548 79 338 1.7 6.1 0.00 0.00 0.00 9 1014.0
20260502002048 78 300 2.6 8.7 0.00 0.00 0.00 9 1014.1
20260502001551 78 332 4.3 8.7 0.00 0.00 0.00 10 1014.1
20260502001047 78 347 4.3 8.7 0.00 0.00 0.00 9 1014.1
20260502000548 79 320 2.6 7.8 0.00 0.00 0.00 9 1014.1
20260502000050 79 333 2.6 10.4 0.00 0.00 0.00 9 1014.2
20260501235548 79 37 3.5 10.4 0.00 0.00 0.00 8 1014.2
20260501235047 79 34 4.3 9.6 0.00 0.00 0.00 9 1014.3
20260501234549 79 262 2.6 7.0 0.00 0.00 0.00 9 1014.2
20260501234048 79 313 2.6 10.4 0.00 0.00 0.00 9 1014.2
20260501233548 79 332 1.7 10.4 0.00 0.00 0.00 9 1014.2
20260501233048 79 292 4.3 10.4 0.00 0.00 0.00 9 1014.3
20260501232547 79 316 1.7 9.6 0.00 0.00 0.00 8 1014.1
20260501232048 79 345 3.5 9.6 0.00 0.00 0.00 8 1014.1
20260501231554 79 338 4.3 8.7 0.00 0.00 0.00 8 1014.1
20260501231048 79 324 2.6 10.4 0.00 0.00 0.00 9 1014.2
20260501230548 79 65 3.5 10.4 0.00 0.00 0.00 9 1014.0
20260501230058 79 345 5.2 10.4 0.00 0.00 0.00 9 1014.2
20260501225550 79 18 2.6 11.3 0.00 0.00 0.00 10 1014.0
20260501225048 80 353 4.3 13.9 0.00 0.00 0.00 9 1014.2
20260501224549 80 352 4.3 13.9 0.00 0.00 0.00 9 1014.1
20260501224049 80 340 3.5 8.7 0.00 0.00 0.00 10 1014.1
20260501223550 80 63 1.7 8.7 0.00 0.00 0.00 10 1014.1
20260501223054 79 349 2.6 8.7 0.00 0.00 0.00 10 1014.2
20260501222548 79 360 3.5 12.2 0.00 0.00 0.00 10 1014.3
20260501222048 79 7 0.9 12.2 0.00 0.00 0.00 11 1014.2
20260501221548 78 326 4.3 12.2 0.00 0.00 0.00 10 1014.5
20260501221051 79 354 2.6 7.8 0.00 0.00 0.00 10 1014.3
20260501220550 79 333 3.5 12.2 0.00 0.00 0.00 10 1014.4
20260501220053 78 325 5.2 13.0 0.00 0.00 0.00 10 1014.5
20260501215549 78 349 5.2 13.0 0.00 0.00 0.00 11 1014.5
20260501215048 78 354 6.1 13.0 0.00 0.00 0.00 12 1014.6
20260501214554 79 335 7.0 13.0 0.00 0.00 0.00 12 1014.6
20260501214048 80 321 3.5 9.6 0.00 0.00 0.00 12 1014.6
20260501213548 79 342 5.2 9.6 0.00 0.00 0.00 12 1014.6
20260501213050 79 360 4.3 10.4 0.00 0.00 0.00 12 1014.6
20260501212548 79 328 5.2 10.4 0.00 0.00 0.00 12 1014.6
20260501212048 79 321 3.5 11.3 0.00 0.00 0.00 12 1014.5
20260501211601 78 335 4.3 11.3 0.00 0.00 0.00 11 1014.8
20260501211047 78 360 6.1 11.3 0.00 0.00 0.00 11 1014.8
20260501210547 78 304 6.1 11.3 0.00 0.00 0.00 11 1014.6
20260501210050 78 357 5.2 13.0 0.00 0.00 0.00 11 1014.7
20260501205549 78 340 4.3 13.0 0.00 0.00 0.00 12 1014.8
20260501205047 79 257 6.1 13.0 0.00 0.00 0.00 11 1014.8
20260501204631 78 326 3.5 10.4 0.00 0.00 0.00 11 1014.8
20260501204047 79 332 4.3 11.3 0.00 0.00 0.00 11 1014.9
20260501203547 79 347 4.3 11.3 0.00 0.00 0.00 10 1014.9
20260501203054 78 344 1.7 10.4 0.00 0.00 0.00 10 1014.8
20260501202548 78 338 5.2 10.4 0.00 0.00 0.00 9 1015.0
20260501202048 78 261 3.5 8.7 0.00 0.00 0.00 11 1014.9
20260501201550 78 336 4.3 8.7 0.00 0.00 0.00 11 1014.9
20260501201048 78 316 2.6 7.8 0.00 0.00 0.00 11 1015.0
20260501200549 78 338 4.3 8.7 0.00 0.00 0.00 11 1015.0
20260501200053 78 309 3.5 8.7 0.00 0.00 0.00 10 1015.2
20260501195548 78 321 4.3 8.7 0.00 0.00 0.00 10 1015.0
20260501195048 77 9 0.9 7.8 0.00 0.00 0.00 12 1014.9
20260501194558 77 30 1.7 8.7 0.00 0.00 0.00 11 1015.2
20260501194047 78 354 2.6 9.6 0.00 0.00 0.00 11 1015.4
20260501193547 77 337 3.5 9.6 0.00 0.00 0.00 12 1015.4
20260501193050 77 326 3.5 8.7 0.00 0.00 0.00 12 1015.3
20260501192547 77 324 5.2 8.7 0.00 0.00 0.00 12 1015.4
20260501192047 78 307 3.5 7.8 0.00 0.00 0.00 11 1015.5
20260501191558 78 4 3.5 7.8 0.00 0.00 0.00 12 1015.5
20260501191048 77 9 2.6 7.8 0.00 0.00 0.00 13 1015.7
20260501190548 77 355 2.6 6.1 0.00 0.00 0.00 12 1015.7
20260501190057 76 41 2.6 8.7 0.00 0.00 0.00 12 1015.7
20260501185550 76 304 3.5 9.6 0.00 0.00 0.00 13 1015.8
20260501185048 77 353 5.2 9.6 0.00 0.00 0.00 12 1015.8
20260501184554 77 335 3.5 7.0 0.00 0.00 0.00 12 1015.9
20260501184051 76 71 3.5 7.0 0.00 0.00 0.00 12 1015.8
20260501183548 76 338 2.6 6.1 0.00 0.00 0.00 12 1015.8
20260501183053 76 330 2.6 6.1 0.00 0.00 0.00 12 1016.0
20260501182553 76 255 1.7 6.1 0.00 0.00 0.00 12 1016.1
20260501182047 76 310 2.6 6.1 0.00 0.00 0.00 12 1016.2
20260501181555 75 41 1.7 6.1 0.00 0.00 0.00 13 1016.4
20260501181052 75 190 2.6 5.2 0.00 0.00 0.00 14 1016.4
20260501180548 75 145 1.7 5.2 0.00 0.00 0.00 15 1016.4
20260501175548 75 169 2.6 6.1 0.00 0.00 0.00 15 1016.4
20260501175051 75 143 2.6 6.1 0.00 0.00 0.00 15 1016.5
20260501174602 74 73 0.0 6.1 0.00 0.00 0.00 15 1016.5
20260501174048 74 122 2.6 6.1 0.00 0.00 0.00 15 1016.6
20260501173548 74 127 2.6 6.1 0.00 0.00 0.00 14 1016.6
20260501173053 74 63 0.0 4.3 0.00 0.00 0.00 15 1016.5
20260501172548 73 0 0.9 4.3 0.00 0.00 0.00 15 1016.6
20260501172050 73 94 1.7 4.3 0.00 0.00 0.00 16 1016.7
20260501171553 73 148 1.7 3.5 0.00 0.00 0.00 15 1016.6
20260501171044 73 57 0.9 3.5 0.00 0.00 0.00 16 1016.8
20260501170548 73 124 0.9 3.5 0.00 0.00 0.00 17 1016.8
20260501170053 72 188 1.7 3.5 0.00 0.00 0.00 17 1016.8
20260501165549 72 134 0.9 3.5 0.00 0.00 0.00 17 1016.8
20260501165048 71 94 0.9 4.3 0.00 0.00 0.00 17 1016.9
20260501164600 71 122 0.9 4.3 0.00 0.00 0.00 18 1017.0
20260501164051 71 158 1.7 3.5 0.00 0.00 0.00 18 1016.8
20260501163548 71 94 0.9 4.3 0.00 0.00 0.00 19 1016.9
20260501163052 70 145 1.7 4.3 0.00 0.00 0.00 19 1017.0
20260501162549 70 160 0.9 3.5 0.00 0.00 0.00 20 1017.0
20260501162047 70 41 0.9 2.6 0.00 0.00 0.00 19 1017.0
20260501161553 70 122 0.9 2.6 0.00 0.00 0.00 19 1016.9
20260501161051 69 112 0.0 3.5 0.00 0.00 0.00 19 1016.9
20260501160548 69 184 0.9 3.5 0.00 0.00 0.00 20 1016.9
20260501160057 69 226 0.0 3.5 0.00 0.00 0.00 19 1016.8
20260501155549 69 101 0.9 3.5 0.00 0.00 0.00 19 1016.8
20260501155049 68 0 0.9 3.5 0.00 0.00 0.00 20 1016.8
20260501154552 67 146 0.9 2.6 0.00 0.00 0.00 19 1016.8
20260501154049 67 111 0.9 2.6 0.00 0.00 0.00 19 1016.8
20260501153548 67 110 0.0 1.7 0.00 0.00 0.00 20 1016.8
20260501153054 66 0 0.0 1.7 0.00 0.00 0.00 19 1016.7
20260501152550 65 0 0.9 1.7 0.00 0.00 0.00 21 1016.8
20260501152049 64 145 0.9 1.7 0.00 0.00 0.00 24 1016.7
20260501151548 63 137 0.9 1.7 0.00 0.00 0.00 24 1016.7
20260501151048 63 141 0.9 2.6 0.00 0.00 0.00 25 1016.7
20260501150551 63 147 0.9 2.6 0.00 0.00 0.00 25 1016.6
20260501150053 63 142 0.9 2.6 0.00 0.00 0.00 25 1016.6
20260501145550 63 0 0.0 2.6 0.00 0.00 0.00 27 1016.6
20260501145049 62 142 0.0 1.7 0.00 0.00 0.00 26 1016.6
20260501144549 62 165 0.0 0.9 0.00 0.00 0.00 26 1016.6